(82461) = 1990 QL14 = 2001 OC16

Discovered at Haleakala on 2001-07-19 by NEAT.

Orbit

Orbit type: Main Belt

Note: WebGL enabled browser required.

epoch2023-09-13.0
epoch JD2460200.5
perihelion date2019-12-29.23344
perihelion JD2458846.73344
argument of perihelion (°)226.05005
ascending node (°)46.09488
inclination (°)2.80555
eccentricity0.1543591
perihelion distance (AU)2.0371003
Tisserand w.r.t. Jupiter3.5
ΔV w.r.t. Earth (km/sec)8.9
semimajor axis (AU)2.4089425
mean anomaly (°)356.86830
mean daily motion (°/day)0.26361140
aphelion distance (AU)2.781
period (years)3.74
P-vector [x]0.03680558
P-vector [y]-0.90227299
P-vector [z]-0.42959143
Q-vector [x]0.99870000
Q-vector [y]0.04838078
Q-vector [z]-0.01604997
absolute magnitude15.96
phase slope0.15
uncertainty0
referenceMPEC 2024-A48
observations used1139
oppositions20
arc length (days)12014
first opposition used1990
last opposition used2023
residual rms (arc-secs)0.72
perturbers coarse indicatorM-v
perturbers precise indicator003Ek
first observation date used1990-08-20.0
last observation date used2023-07-11.0
computer nameMPCLINUX
JD of orbit computation2456700.189100
perihelion JD uncertainty (days)9.4566E-05
argument of perihelion uncertainty (°)8.8824E-05
ascending node uncertainty (°)8.6640E-05
inclination uncertainty (°)5.4592E-06
eccentricity uncertainty 3.8316E-08
perihelion distance uncertainty (AU)9.3909E-08
Minimum Orbit Intersection Distances (in AU)
for orbit epoch: 2460200.5, reference: E2024-A48
Mercury1.5734
Venus1.31019
Earth1.02144
Mars0.55231
Jupiter2.30963
Saturn6.2772
Uranus15.8829
Neptune27.1877

Observations

1169 total observations over interval: 1990 08 20.23194 – 2023 07 11.795974
These data are available for download (format description).

Date (UT) J2000 RA J2000 Dec Magn Location Ref
1990 08 20.23194 23 34 19.65 -07 43 04.4 20.0   809 – European Southern Observatory, La Silla MPC 18960
1990 08 20.24514 23 34 18.89 -07 43 08.3   809 – European Southern Observatory, La Silla MPC 18960
1990 08 20.25833 23 34 18.23 -07 43 14.0   809 – European Southern Observatory, La Silla MPC 18960
1998 11 11.91673 03 13 22.09 +18 15 56.6 19.4 V 910 – Caussols-ODAS MPS 32463
1998 11 11.94018 03 13 20.56 +18 15 52.2 19.4 V 910 – Caussols-ODAS MPS 32463
1998 11 11.96342 03 13 19.01 +18 15 48.3 19.5 V 910 – Caussols-ODAS MPS 32463
1998 11 19.13541 03 05 47.81 +17 53 04.1 19.6 V 691 – Steward Observatory, Kitt Peak-Spacewatch MPS 32463
1998 11 19.15742 03 05 46.39 +17 53 02.2 18.4 V 691 – Steward Observatory, Kitt Peak-Spacewatch MPS 32463
1998 11 19.17937 03 05 45.07 +17 52 56.1 19.4 V 691 – Steward Observatory, Kitt Peak-Spacewatch MPS 32463
1998 11 26.13421 02 58 56.05 +17 31 19.5 19.5 V 691 – Steward Observatory, Kitt Peak-Spacewatch MPS 32463
1998 11 26.15642 02 58 54.79 +17 31 15.2 19.5 V 691 – Steward Observatory, Kitt Peak-Spacewatch MPS 32463
1998 11 26.17855 02 58 53.51 +17 31 11.1 19.5 V 691 – Steward Observatory, Kitt Peak-Spacewatch MPS 32463
2000 02 03.30033 09 55 23.90 +17 22 47.0 19.4   704 – Lincoln Laboratory ETS, New Mexico MPS 32463
2000 02 03.31475 09 55 23.11 +17 22 51.6 19.7   704 – Lincoln Laboratory ETS, New Mexico MPS 32463
2000 02 03.32896 09 55 22.20 +17 22 55.4 19.6   704 – Lincoln Laboratory ETS, New Mexico MPS 32463
2000 02 03.34359 09 55 21.35 +17 23 01.7 19.9   704 – Lincoln Laboratory ETS, New Mexico MPS 32463
2001 06 16.38974 21 15 22.63 -20 23 18.4 18.6 R 699 – Lowell Observatory-LONEOS MPS 32463
2001 06 16.40852 21 15 22.79 -20 23 20.3   699 – Lowell Observatory-LONEOS MPS 32463
2001 06 16.42733 21 15 22.97 -20 23 22.4   699 – Lowell Observatory-LONEOS MPS 32463
2001 06 16.44617 21 15 23.31 -20 23 22.7   699 – Lowell Observatory-LONEOS MPS 32463
2001 06 27.37948 21 15 29.59 -20 48 53.5 18.4 R 699 – Lowell Observatory-LONEOS MPS 32463
2001 06 27.39435 21 15 29.37 -20 48 57.3   699 – Lowell Observatory-LONEOS MPS 32463
2001 06 27.40919 21 15 29.17 -20 48 59.4   699 – Lowell Observatory-LONEOS MPS 32463
2001 06 27.42414 21 15 28.93 -20 49 01.9   699 – Lowell Observatory-LONEOS MPS 32463
2001 07 03.51615 21 13 43.84 -21 09 58.5 19.2   608 – Haleakala-AMOS MPS 32463
2001 07 03.52713 21 13 43.54 -21 10 01.3 19.7   608 – Haleakala-AMOS MPS 32463
2001 07 03.53778 21 13 43.23 -21 10 03.0 19.5   608 – Haleakala-AMOS MPS 32463
2001 07 19.52673 21 03 39.05 -22 19 13.3 18.7   608 – Haleakala-AMOS MPS 32463
2001 07 19.53724 21 03 38.52 -22 19 16.5 18.6   608 – Haleakala-AMOS MPS 32463
2001 07 19.54783 21 03 37.94 -22 19 19.5 18.9   608 – Haleakala-AMOS MPS 32463
2001 07 22.25009 21 01 19.21 -22 31 38.7 18.3   644 – Palomar Mountain/NEAT MPS 32463
2001 07 22.26176 21 01 18.55 -22 31 41.8 18.0   644 – Palomar Mountain/NEAT MPS 32463
2001 07 22.27271 21 01 17.96 -22 31 45.0 17.7   644 – Palomar Mountain/NEAT MPS 32463
2001 07 28.30421 20 55 44.72 -22 58 07.6 17.6 R 699 – Lowell Observatory-LONEOS MPS 32463
2001 07 28.32298 20 55 43.61 -22 58 12.6   699 – Lowell Observatory-LONEOS MPS 32463
2001 07 28.34175 20 55 42.50 -22 58 17.0   699 – Lowell Observatory-LONEOS MPS 32463
2001 07 28.36050 20 55 41.35 -22 58 21.7   699 – Lowell Observatory-LONEOS MPS 32463
2001 08 19.21286 20 36 09.17 -24 01 05.9 18.7   704 – Lincoln Laboratory ETS, New Mexico MPS 33357
2001 08 19.22552 20 36 08.62 -24 01 08.3 18.5   704 – Lincoln Laboratory ETS, New Mexico MPS 33357
2001 08 19.23810 20 36 08.01 -24 01 08.9 18.6   704 – Lincoln Laboratory ETS, New Mexico MPS 33357
2001 08 19.25071 20 36 07.43 -24 01 09.9 18.3   704 – Lincoln Laboratory ETS, New Mexico MPS 33357
2001 08 19.26355 20 36 06.81 -24 01 10.6 18.6   704 – Lincoln Laboratory ETS, New Mexico MPS 33357
2001 08 23.22872 20 33 27.51 -24 04 58.3 17.9 R 699 – Lowell Observatory-LONEOS MPS 33357
2001 08 23.23976 20 33 27.05 -24 04 58.6   699 – Lowell Observatory-LONEOS MPS 33357
2001 08 23.25078 20 33 26.60 -24 05 00.2   699 – Lowell Observatory-LONEOS MPS 33357
2001 08 23.26167 20 33 26.18 -24 05 00.2   699 – Lowell Observatory-LONEOS MPS 33357
2001 08 24.18252 20 32 53.30 -24 05 28.8 17.8   644 – Palomar Mountain/NEAT MPS 33357
2001 08 24.19287 20 32 52.91 -24 05 30.6 18.1   644 – Palomar Mountain/NEAT MPS 33357
2001 08 24.20341 20 32 52.51 -24 05 30.9 18.1   644 – Palomar Mountain/NEAT MPS 33357
2001 08 25.18131 20 32 18.93 -24 05 56.2 19.0   704 – Lincoln Laboratory ETS, New Mexico MPS 33357
2001 08 25.19716 20 32 18.32 -24 05 56.4 18.9   704 – Lincoln Laboratory ETS, New Mexico MPS 33357
2001 08 25.22790 20 32 17.22 -24 05 55.9 19.2   704 – Lincoln Laboratory ETS, New Mexico MPS 33357
2002 12 05.30425 04 57 09.36 +24 44 35.1 20.7   704 – Lincoln Laboratory ETS, New Mexico MPS 67799
2002 12 05.31956 04 57 08.24 +24 44 34.5 20.2   704 – Lincoln Laboratory ETS, New Mexico MPS 67799
2002 12 05.33495 04 57 07.14 +24 44 33.5 20.4   704 – Lincoln Laboratory ETS, New Mexico MPS 67799
2004 02 17.50195 12 01 02.65 +04 03 51.0 21.1   608 – Haleakala-AMOS MPS 98701
2004 02 17.51269 12 01 02.29 +04 03 52.8 20.7   608 – Haleakala-AMOS MPS 98701
2004 02 17.52351 12 01 01.91 +04 03 55.8 20.1   608 – Haleakala-AMOS MPS 98701
2004 02 23.34098 11 57 29.27 +04 29 31.3 18.8   704 – Lincoln Laboratory ETS, New Mexico MPS 99996
2004 02 23.35352 11 57 28.74 +04 29 34.5 19.1   704 – Lincoln Laboratory ETS, New Mexico MPS 99996
2004 02 23.36588 11 57 28.21 +04 29 38.2 19.3   704 – Lincoln Laboratory ETS, New Mexico MPS 99996
2004 02 23.37803 11 57 27.73 +04 29 41.3 19.5   704 – Lincoln Laboratory ETS, New Mexico MPS 99996
2004 02 23.39617 11 57 26.90 +04 29 46.7 19.7   704 – Lincoln Laboratory ETS, New Mexico MPS 99996
2004 03 11.27874 11 43 15.54 +06 00 07.7 19.1   644 – Palomar Mountain/NEAT MPS 101099
2004 03 11.30245 11 43 14.12 +06 00 15.2 18.2   644 – Palomar Mountain/NEAT MPS 101099
2004 03 11.32781 11 43 12.63 +06 00 23.9 18.2   644 – Palomar Mountain/NEAT MPS 101099
2004 03 15.29845 11 39 22.80 +06 22 28.3 18.8 V 703 – Catalina Sky Survey MPS 101099
2004 03 15.31033 11 39 22.12 +06 22 32.4 18.9   704 – Lincoln Laboratory ETS, New Mexico MPS 101099
2004 03 15.31212 11 39 21.98 +06 22 33.3 18.4 V 703 – Catalina Sky Survey MPS 101099
2004 03 15.32107 11 39 21.44 +06 22 36.1 19.2   704 – Lincoln Laboratory ETS, New Mexico MPS 101099
2004 03 15.32577 11 39 21.17 +06 22 37.4 18.8 V 703 – Catalina Sky Survey MPS 101099
2004 03 15.33187 11 39 20.80 +06 22 40.1 19.4   704 – Lincoln Laboratory ETS, New Mexico MPS 101099
2004 03 15.33948 11 39 20.27 +06 22 41.5 19.1 V 703 – Catalina Sky Survey MPS 101099
2004 03 15.34262 11 39 20.15 +06 22 43.6 19.0   704 – Lincoln Laboratory ETS, New Mexico MPS 101099
2004 03 15.35365 11 39 19.49 +06 22 47.4 19.6   704 – Lincoln Laboratory ETS, New Mexico MPS 101099
2004 03 15.38856 11 39 17.37 +06 22 58.5 19.2 V 691 – Steward Observatory, Kitt Peak-Spacewatch MPS 101099
2004 03 15.41675 11 39 15.66 +06 23 07.7 18.9 V 691 – Steward Observatory, Kitt Peak-Spacewatch MPS 101099
2004 03 15.46342 11 39 12.86 +06 23 22.8 19.1 V 691 – Steward Observatory, Kitt Peak-Spacewatch MPS 101099
2004 03 19.33313 11 35 27.04 +06 44 11.5 19.0   704 – Lincoln Laboratory ETS, New Mexico MPS 102074
2004 03 19.34381 11 35 26.37 +06 44 14.5 19.6   704 – Lincoln Laboratory ETS, New Mexico MPS 102074
2004 03 19.35457 11 35 25.75 +06 44 17.8 20.0   704 – Lincoln Laboratory ETS, New Mexico MPS 102074
2004 03 19.36602 11 35 25.07 +06 44 21.8 19.4   704 – Lincoln Laboratory ETS, New Mexico MPS 102074
2004 03 19.37683 11 35 24.43 +06 44 25.1 19.1   704 – Lincoln Laboratory ETS, New Mexico MPS 102074
2004 03 22.33908 11 32 33.16 +06 59 33.8 19.8   704 – Lincoln Laboratory ETS, New Mexico MPS 102074
2004 03 22.34976 11 32 32.54 +06 59 37.8 20.1   704 – Lincoln Laboratory ETS, New Mexico MPS 102074
2004 03 22.36063 11 32 31.83 +06 59 40.4 20.2   704 – Lincoln Laboratory ETS, New Mexico MPS 102074
2004 03 22.37148 11 32 31.36 +06 59 43.2 20.1   704 – Lincoln Laboratory ETS, New Mexico MPS 102074
2004 03 22.38251 11 32 30.62 +06 59 46.8 20.3   704 – Lincoln Laboratory ETS, New Mexico MPS 102074
